Regional Weather Roundup
Issued by NWS

Home | Current Version | Previous Version | Graphics & Text | Print | Product List | Glossary On
Versions: 1 2 3 4 5 6 7 8 9 10 11 12 13 14 15 16 17 18 19 20 21 22 23 24 25 26 27
000
ASUS45 KBOU 162206
RWRCO

WEATHER ROUNDUP FOR COLORADO
NATIONAL WEATHER SERVICE DENVER/BOULDER CO
400 PM MDT WED APR 16 2014

NOTE: "FAIR" INDICATES FEW OR NO CLOUDS BELOW 12000 FEET WITH NO
SIGNIFICANT WEATHER AND/OR OBSTRUCTIONS TO VISIBILITY.

COZ001>005-013-030-031-162300-
...NORTHWEST COLORADO...

CITY           SKY/WX    TMP DP  RH WIND       PRES   REMARKS
CRAIG          PTSUNNY   50  13  22 SW14      29.95F
HAYDEN         PTSUNNY   48  10  21 W9        29.99S
MEEKER         PTSUNNY   52   8  17 W6        29.94F
MOUNT WERNER   NOT AVBL
STEAMBOAT SPGS PTSUNNY   46   2  16 SW6       29.96S
WALDEN         MOSUNNY   39   7  26 W13       29.96F
$$

COZ006>008-011-162300-
...WEST CENTRAL VALLEYS...

CITY           SKY/WX    TMP DP  RH WIND       PRES   REMARKS
GRAND JUNCTION CLOUDY    57  11  16 NW9       29.89F
MONTROSE       CLOUDY    56  13  18 N10       29.92F
EAGLE          PTSUNNY   55  10  16 SW18      29.91F
RIFLE          MOSUNNY   56   9  15 W5        29.88F
DELTA          CLOUDY    62  15  16 NW7       29.89F
NUCLA            N/A     55  16  21 N8G16     29.94S
$$

COZ017>023-064>068-162300-
...SOUTHWEST COLORADO...

CITY           SKY/WX    TMP DP  RH WIND       PRES   REMARKS
DURANGO        CLOUDY    56  17  21 W22G31    29.88R
CORTEZ         PTSUNNY   59  21  23 SW14G23   29.90S
PAGOSA SPRINGS CLOUDY    56  12  17 W16G23    29.88S
TELLURIDE      NOT AVBL
WOLF CREEK PAS CLOUDY    32  18  55 SW24G33   30.01F WCI  19
$$

COZ009-010-012-014-032>034-037-058>063-162300-
...CENTRAL COLORADO...

CITY           SKY/WX    TMP DP  RH WIND       PRES   REMARKS
ASPEN          CLOUDY    48  11  22 CALM      29.91F
BUENA VISTA    PTSUNNY   53   8  16 W13G22    29.87S
COPPER MTN     PTSUNNY   34   5  29 W23G32    30.00F WCI  22
BERTHOUD PASS  CLOUDY    23  14  68 MISG      30.03R
COTTONWOOD PAS PTSUNNY   46   7  19 W6G17     29.94R
GUNNISON       CLOUDY    50  14  23 W13G24    29.94F
KREMMLING      CLOUDY    50   3  14 N10       29.94F
LEADVILLE      CLOUDY    38  11  32 W14G20    29.94F
MONARCH PASS   CLOUDY    30  14  51 W44G53    30.08F WCI  13
SALIDA         PTSUNNY   58  12  16 W20G28    29.93F
SUNLIGHT       CLOUDY    36  12  38 CALM      30.02S
WILKERSON PASS CLOUDY    27  19  74 E9        30.02S WCI  17
$$

COZ069>075-162300-
...SAN LUIS VALLEY/SANGRE DE CRISTO MOUNTAINS...

CITY           SKY/WX    TMP DP  RH WIND       PRES   REMARKS
ALAMOSA        CLOUDY    57  20  23 N15       29.83R
LA VETA PASS   CLOUDY    34  25  69 NE20G32   29.98F WCI  22
SAGUACHE       CLOUDY    54  16  22 NW17G24   29.88S
$$

COZ035-036-038>040-162300-
...NORTHERN COLORADO FRONT RANGE...

CITY           SKY/WX    TMP DP  RH WIND       PRES   REMARKS
DENVER INTL AP PTSUNNY   52  21  29 NE17      29.93R
DMNS CITY PARK   N/A     51  16  24 E16       29.92S
AURORA         PTSUNNY   52  18  25 N20       29.94R
FRONT RANGE AP PTSUNNY   55  21  26 NE15G25   29.93S
ERIE MUNI ARPT PTSUNNY   52  21  29 E15G21    29.92R
BOULDER MUN AP PTSUNNY   54  18  24 E9        29.91R
CENTENNIAL     CLOUDY    49  17  28 E10       29.93R
BROOMFIELD     PTSUNNY   52  19  28 E12       29.92R
FORT COLLINS   PTSUNNY   52  25  35 NE13      29.93R
LONGMONT       PTSUNNY   55  23  29 NE17      29.94R
$$

COZ041-046-047-076>085-087-088-162300-
...PIKES PEAK/PALMER DIVIDE AND SOUTHERN FOOTHILLS...

CITY           SKY/WX    TMP DP  RH WIND       PRES   REMARKS
COLO. SPRINGS  LGT RAIN  43  30  60 N20       29.97R
A. F. ACADEMY  FLURRIES  35  33  93 N9        29.99R WCI  28
ELLICOTT       NOT AVBL
FALCON         CLOUDY    38  28  66 N10       29.99R
FORT CARSON    CLOUDY    44  33  64 N23G29    29.95R
LIMON          CLOUDY    49  22  34 NE21G30   29.94S
MONUMENT HILL  CLOUDY    41  18  38 S3          N/A
TRINIDAD       CLOUDY    55  23  28 NE17      29.89R
$$

COZ042>045-048>051-090-091-162300-
...NORTHEAST COLORADO...

CITY           SKY/WX    TMP DP  RH WIND       PRES   REMARKS
GREELEY ARPT   MOSUNNY   55  21  26 N20G25    29.93R
AKRON          MOSUNNY   52  22  30 N20G29    29.93S
BURLINGTON     CLOUDY    54  23  30 N23G30    29.92R
WRAY           MOSUNNY   55  31  40 N20G30    29.94R
STERLING       MOSUNNY   59  27  29 N22G32    29.92S
HOLYOKE        MOSUNNY   54  32  43 N17G24    29.95R
FORT MORGAN    MOSUNNY   55  21  26 N18G30    29.94S
$$

COZ086-089-092>099-162300-
...SOUTHEAST COLORADO...

CITY           SKY/WX    TMP DP  RH WIND       PRES   REMARKS
PUEBLO         CLOUDY    57  26  30 S16G25    29.89R
LA JUNTA       CLOUDY    61  21  21 NE16G24   29.89R
LAMAR          CLOUDY    62  21  20 NE16G28   29.89R
SPRINGFIELD      N/A     59  22  24 E17G24    29.88S
$$



USA.gov is the U.S. government's official web portal to all federal, state and local government web resources and services.